EW7225 Weather Reports


Display with metric or nautical units.
time (UTC)temp
F
wind
direction
speed
MPH
gust
MPH
rain 1hr
in
rain 24hr
in
rain mn
in
humidity
%
barometer
mb
20260504020528 51 342 1.0 3.0 0.00 0.00 0.00 87 1019.7
20260504015522 51 0.0 0.0 0.00 0.00 0.00 88 1019.8
20260504014536 51 0.0 0.0 0.00 0.00 0.00 88 1019.8
20260504013528 51 0.0 0.0 0.00 0.00 0.00 87 1019.7
20260504012523 51 0.0 0.0 0.00 0.00 0.00 86 1019.9
20260504011535 52 0.0 0.0 0.00 0.00 0.00 84 1019.6
20260504010528 53 0.0 0.0 0.00 0.00 0.00 83 1019.6
20260504005520 53 0.0 0.0 0.00 0.00 0.00 82 1019.7
20260504004534 53 0.0 0.0 0.00 0.00 0.00 81 1019.8
20260504003526 53 330 0.0 1.0 0.00 0.00 0.00 81 1019.7
20260504002520 52 336 1.0 3.0 0.00 0.00 0.00 82 1019.8
20260504001533 51 0.0 0.0 0.00 0.00 0.00 87 1020.0
20260504000527 51 0.0 0.0 0.00 0.00 0.00 88 1020.0
20260503235520 51 0.0 0.0 0.00 0.00 0.00 88 1020.0
20260503234614 52 0.0 0.0 0.00 0.00 0.00 89 1020.1
20260503233529 52 0.0 0.0 0.00 0.00 0.00 89 1020.2
20260503232520 53 0.0 0.0 0.00 0.00 0.00 88 1020.2
20260503231556 52 0.0 0.0 0.00 0.00 0.00 88 1020.4
20260503230527 53 0.0 0.0 0.00 0.00 0.00 88 1020.4
20260503225519 54 295 0.0 3.0 0.00 0.00 0.00 89 1020.6
20260503224533 54 0.0 0.0 0.00 0.00 0.00 89 1020.6
20260503223546 54 0.0 0.0 0.00 0.00 0.00 89 1020.6
20260503222520 54 0.0 0.0 0.00 0.00 0.00 88 1020.4
20260503221533 54 0.0 0.0 0.00 0.00 0.00 87 1020.5
20260503220527 54 258 0.0 1.0 0.00 0.00 0.00 86 1020.5
20260503215520 55 0.0 0.0 0.00 0.00 0.00 84 1020.6
20260503214534 55 287 0.0 3.0 0.00 0.00 0.00 84 1020.4
20260503213611 55 298 1.0 3.0 0.00 0.00 0.00 84 1020.2
20260503212520 56 296 1.0 3.0 0.00 0.00 0.00 84 1020.3
20260503211533 56 320 2.0 4.0 0.00 0.00 0.00 83 1020.3
20260503210524 56 317 3.0 7.0 0.00 0.00 0.00 80 1020.3
20260503205610 56 299 2.0 4.0 0.00 0.00 0.00 69 1020.2
20260503204516 56 298 0.0 2.0 0.00 0.00 0.00 70 1020.1
20260503203526 57 302 1.0 4.0 0.00 0.00 0.00 67 1020.1
20260503202517 57 296 1.0 3.0 0.00 0.00 0.00 66 1020.1
20260503201528 56 318 1.0 4.0 0.00 0.00 0.00 70 1020.2
20260503200517 57 326 0.0 2.0 0.00 0.00 0.00 73 1020.2
20260503195525 57 288 1.0 4.0 0.00 0.00 0.00 74 1020.2
20260503194537 57 277 1.0 3.0 0.00 0.00 0.00 73 1020.0
20260503193606 57 268 1.0 3.0 0.00 0.00 0.00 75 1020.0
20260503192518 57 283 0.0 2.0 0.00 0.00 0.00 75 1019.9
20260503191549 58 280 1.0 3.0 0.00 0.00 0.00 75 1019.8
20260503190537 58 301 2.0 6.0 0.00 0.00 0.00 75 1019.8
20260503185530 59 301 2.0 6.0 0.00 0.00 0.00 72 1019.8
20260503184523 60 317 3.0 9.0 0.00 0.00 0.00 70 1019.6
20260503183535 60 323 2.0 7.0 0.00 0.00 0.00 67 1019.3
20260503182529 61 319 3.0 7.0 0.00 0.00 0.00 66 1019.3
20260503181522 61 297 4.0 6.0 0.00 0.00 0.00 66 1019.1
20260503180537 62 305 2.0 4.0 0.00 0.00 0.00 65 1019.0
20260503175530 62 300 1.0 6.0 0.00 0.00 0.00 63 1019.0
20260503174523 63 285 1.0 3.0 0.00 0.00 0.00 62 1018.9
20260503173536 64 300 1.0 3.0 0.00 0.00 0.00 61 1018.8
20260503172532 64 286 2.0 4.0 0.00 0.00 0.00 60 1018.7
20260503171525 65 308 2.0 4.0 0.00 0.00 0.00 58 1018.6
20260503170517 66 272 0.0 3.0 0.00 0.00 0.00 58 1018.7
20260503150519 69 286 3.0 7.0 0.00 0.00 0.00 52 1019.5
20260503130524 69 311 4.0 11.0 0.00 0.00 0.00 50 1020.1
20260503110523 69 305 3.0 8.0 0.00 0.00 0.00 51 1020.4
20260503081520 64 285 3.0 7.0 0.00 0.00 0.00 54 1021.4
20260503080533 63 289 3.0 6.0 0.00 0.00 0.00 57 1021.6
20260503072526 61 218 1.0 6.0 0.00 0.00 0.00 68 1021.7
20260503071519 61 257 1.0 3.0 0.00 0.00 0.00 69 1021.9
20260503070535 62 0.0 0.0 0.00 0.00 0.00 66 1021.9
20260503054524 57 0.0 0.0 0.00 0.00 0.00 68 1021.6
20260503053534 54 0.0 0.0 0.00 0.00 0.00 72 1021.6
20260503052528 53 0.0 0.0 0.00 0.00 0.00 75 1021.7
20260503051520 52 55 0.0 2.0 0.00 0.00 0.00 77 1021.7
20260503050533 51 0.0 0.0 0.00 0.00 0.00 80 1021.6
20260503045528 48 0.0 0.0 0.00 0.00 0.00 85 1021.5
20260503044520 48 106 0.0 1.0 0.00 0.00 0.00 88 1021.6
20260503043534 47 0.0 0.0 0.00 0.00 0.00 88 1021.4
20260503042549 46 0.0 0.0 0.00 0.00 0.00 87 1021.5
20260503041521 47 0.0 0.0 0.00 0.00 0.00 87 1021.4
20260503040535 47 0.0 0.0 0.00 0.00 0.00 86 1021.4
20260503035528 46 0.0 0.0 0.00 0.00 0.00 85 1021.3
20260503034521 46 0.0 0.0 0.00 0.00 0.00 85 1021.4
20260503033535 48 0.0 0.0 0.00 0.00 0.00 81 1021.2
20260503032528 48 21 1.0 3.0 0.00 0.00 0.00 83 1021.1
20260503031522 49 0.0 0.0 0.00 0.00 0.00 79 1021.2
20260503030536 49 0.0 0.0 0.00 0.00 0.00 80 1021.2
20260503025529 49 0.0 0.0 0.00 0.00 0.00 80 1021.2
20260503024522 49 0.0 0.0 0.00 0.00 0.00 82 1021.3
20260503023516 48 0.0 0.0 0.00 0.00 0.00 81 1021.4
20260503022529 49 0.0 0.0 0.00 0.00 0.00 80 1021.5
20260503021523 49 0.0 0.0 0.00 0.00 0.00 80 1021.5